Total_Precipitation_Accumulation
1.35 1.31 1.18 0.97 0.85 0.84 0.86 0.84 0.78 0.80 0.76 0.78 0.78 0.82 0.94 0.96 0.96 1.12 1.22 1.24 1.35 1.43 1.42 1.46 1.62 1.76 1.88 1.91 1.91 1.90 1.95 1.91 1.78 1.53 1.21 1.03 1.10 1.11 1.17 1.03 1.01 1.05 0.97
1.06 0.96 0.84 0.71 0.66 0.67 0.67 0.63 0.55 0.57 0.53 0.60 0.66 0.65 0.84 1.01 1.04 1.07 1.07 1.05 1.17 1.26 1.28 1.34 1.40 1.42 1.54 1.69 1.78 1.76 1.84 1.89 1.85 1.75 1.46 1.22 1.20 1.26 1.41 1.40 1.28 1.18 1.14
0.98 0.82 0.75 0.70 0.69 0.67 0.60 0.54 0.45 0.42 0.47 0.54 0.64 0.63 0.69 0.85 0.96 0.97 0.94 0.95 1.01 1.08 1.12 1.18 1.21 1.27 1.40 1.43 1.50 1.59 1.67 1.73 1.84 1.80 1.71 1.57 1.39 1.32 1.38 1.37 1.42 1.54 1.47
1.16 0.96 0.84 0.78 0.68 0.60 0.50 0.47 0.41 0.45 0.51 0.53 0.51 0.55 0.60 0.71 0.82 0.82 0.82 0.83 0.86 0.87 1.00 1.08 1.12 1.16 1.26 1.32 1.33 1.46 1.59 1.68 1.72 1.70 1.66 1.57 1.51 1.46 1.45 1.43 1.49 1.61 1.68
0.87 0.66 0.58 0.57 0.54 0.44 0.40 0.38 0.36 0.36 0.35 0.39 0.36 0.38 0.43 0.53 0.59 0.59 0.65 0.72 0.77 0.81 0.91 0.94 0.97 0.92 0.96 1.03 1.03 1.22 1.39 1.58 1.65 1.69 1.60 1.48 1.42 1.43 1.40 1.40 1.47 1.66 1.69
0.55 0.46 0.42 0.37 0.33 0.31 0.30 0.29 0.25 0.23 0.20 0.26 0.28 0.31 0.35 0.37 0.47 0.47 0.48 0.59 0.69 0.73 0.80 0.82 0.90 0.91 0.86 0.82 0.81 0.89 1.03 1.16 1.36 1.50 1.54 1.46 1.38 1.37 1.44 1.52 1.52 1.61 1.71
0.29 0.25 0.24 0.26 0.24 0.22 0.21 0.22 0.23 0.21 0.17 0.19 0.22 0.29 0.29 0.27 0.32 0.32 0.43 0.61 0.63 0.62 0.60 0.73 0.86 0.92 0.95 0.96 0.84 0.83 0.84 0.88 0.99 1.18 1.33 1.34 1.32 1.34 1.43 1.50 1.53 1.57 1.48
0.23 0.19 0.18 0.20 0.22 0.23 0.24 0.24 0.21 0.19 0.17 0.21 0.22 0.29 0.27 0.20 0.24 0.28 0.37 0.50 0.56 0.52 0.53 0.65 0.80 0.92 0.96 0.99 0.94 0.99 0.96 0.85 0.82 0.89 1.09 1.20 1.22 1.35 1.52 1.63 1.69 1.65 1.57
0.19 0.19 0.18 0.20 0.21 0.21 0.19 0.20 0.18 0.17 0.17 0.21 0.24 0.25 0.22 0.17 0.18 0.25 0.36 0.49 0.55 0.54 0.51 0.59 0.74 0.83 0.95 0.99 0.94 1.04 1.04 0.85 0.77 0.87 0.92 1.02 1.15 1.28 1.47 1.65 1.70 1.68 1.62
0.19 0.22 0.23 0.22 0.20 0.18 0.20 0.22 0.20 0.18 0.18 0.19 0.21 0.21 0.20 0.21 0.21 0.22 0.29 0.37 0.46 0.54 0.53 0.58 0.77 0.84 0.89 0.86 0.87 1.07 1.16 1.02 0.77 0.76 0.84 0.99 1.10 1.24 1.46 1.62 1.85 1.85 1.62
0.23 0.24 0.22 0.21 0.20 0.21 0.22 0.25 0.24 0.21 0.19 0.18 0.19 0.19 0.17 0.18 0.20 0.21 0.27 0.26 0.30 0.36 0.42 0.47 0.50 0.64 0.69 0.74 0.83 0.93 1.04 0.93 0.83 0.91 1.01 1.05 1.15 1.22 1.32 1.44 1.69 1.88 1.80
0.20 0.20 0.19 0.19 0.21 0.23 0.23 0.21 0.19 0.18 0.18 0.17 0.16 0.16 0.17 0.16 0.17 0.19 0.24 0.24 0.27 0.31 0.34 0.39 0.45 0.58 0.62 0.66 0.71 0.75 0.80 0.84 0.89 1.02 1.04 0.96 1.03 1.11 1.13 1.23 1.41 1.55 1.46
0.16 0.18 0.20 0.23 0.26 0.26 0.25 0.22 0.21 0.19 0.20 0.20 0.19 0.20 0.21 0.20 0.18 0.21 0.24 0.25 0.28 0.29 0.32 0.39 0.42 0.51 0.50 0.53 0.61 0.64 0.70 0.90 1.03 0.99 0.97 0.94 0.94 0.99 0.99 1.10 1.30 1.45 1.41
0.18 0.19 0.22 0.24 0.27 0.29 0.26 0.23 0.21 0.20 0.23 0.25 0.25 0.25 0.25 0.25 0.21 0.21 0.23 0.26 0.31 0.33 0.35 0.39 0.43 0.48 0.48 0.49 0.56 0.65 0.75 0.92 1.06 0.94 0.82 0.83 0.86 0.97 1.04 1.02 1.11 1.20 1.35
0.20 0.22 0.26 0.26 0.28 0.29 0.27 0.26 0.25 0.25 0.28 0.31 0.30 0.31 0.29 0.27 0.28 0.31 0.28 0.29 0.33 0.34 0.38 0.46 0.57 0.66 0.65 0.65 0.71 0.74 0.77 0.78 0.85 0.80 0.80 0.86 0.93 0.95 1.00 1.01 1.02 1.03 1.05
0.21 0.23 0.26 0.28 0.29 0.30 0.31 0.31 0.32 0.31 0.32 0.32 0.31 0.30 0.28 0.29 0.33 0.36 0.39 0.38 0.40 0.42 0.49 0.51 0.63 0.78 0.83 0.85 0.85 0.86 0.87 0.82 0.84 0.81 0.84 0.88 0.89 0.87 0.88 0.94 1.04 1.10 1.03
0.21 0.25 0.27 0.27 0.27 0.29 0.31 0.35 0.38 0.37 0.33 0.31 0.30 0.31 0.29 0.30 0.32 0.33 0.35 0.39 0.43 0.51 0.51 0.54 0.72 0.79 0.79 0.82 0.88 0.92 0.85 0.75 0.76 0.78 0.76 0.76 0.76 0.74 0.76 0.79 0.88 0.95 0.98
0.25 0.29 0.31 0.29 0.29 0.32 0.32 0.32 0.35 0.38 0.37 0.32 0.29 0.29 0.29 0.30 0.30 0.31 0.35 0.39 0.45 0.51 0.56 0.73 0.90 0.95 0.89 0.83 0.80 0.77 0.70 0.65 0.64 0.64 0.68 0.69 0.72 0.73 0.73 0.72 0.74 0.77 0.82
0.28 0.27 0.30 0.32 0.32 0.33 0.33 0.33 0.31 0.30 0.32 0.32 0.31 0.31 0.33 0.32 0.32 0.34 0.36 0.37 0.44 0.50 0.60 0.73 0.85 0.95 0.90 0.78 0.69 0.65 0.61 0.60 0.59 0.60 0.64 0.69 0.71 0.72 0.71 0.71 0.71 0.74 0.77
0.24 0.31 0.33 0.33 0.33 0.33 0.35 0.35 0.33 0.32 0.34 0.34 0.34 0.37 0.40 0.36 0.35 0.40 0.42 0.43 0.46 0.50 0.53 0.57 0.60 0.62 0.59 0.58 0.62 0.60 0.58 0.61 0.61 0.61 0.65 0.67 0.72 0.77 0.77 0.73 0.72 0.72 0.72
0.24 0.31 0.35 0.32 0.30 0.33 0.39 0.41 0.39 0.37 0.35 0.34 0.33 0.37 0.40 0.36 0.38 0.42 0.43 0.43 0.48 0.51 0.52 0.52 0.53 0.55 0.54 0.53 0.55 0.56 0.56 0.58 0.61 0.62 0.66 0.70 0.70 0.72 0.76 0.76 0.73 0.73 0.73
0.25 0.28 0.31 0.33 0.34 0.38 0.41 0.43 0.43 0.40 0.37 0.35 0.33 0.35 0.39 0.38 0.40 0.40 0.40 0.42 0.45 0.48 0.49 0.49 0.47 0.50 0.54 0.53 0.55 0.58 0.57 0.56 0.58 0.63 0.68 0.72 0.74 0.73 0.73 0.73 0.73 0.72 0.72
0.29 0.29 0.30 0.35 0.39 0.44 0.45 0.44 0.42 0.40 0.39 0.37 0.39 0.39 0.39 0.39 0.39 0.39 0.40 0.42 0.43 0.45 0.47 0.48 0.46 0.47 0.49 0.48 0.50 0.54 0.55 0.55 0.58 0.64 0.73 0.77 0.81 0.81 0.79 0.76 0.73 0.75 0.75
0.32 0.35 0.35 0.38 0.40 0.41 0.41 0.45 0.46 0.44 0.43 0.41 0.38 0.39 0.41 0.40 0.42 0.43 0.41 0.40 0.40 0.43 0.43 0.45 0.45 0.45 0.48 0.50 0.51 0.52 0.52 0.53 0.57 0.62 0.69 0.77 0.80 0.82 0.87 0.89 0.86 0.83 0.81
0.39 0.40 0.40 0.41 0.41 0.42 0.44 0.45 0.48 0.48 0.46 0.46 0.45 0.43 0.45 0.45 0.45 0.47 0.44 0.42 0.41 0.42 0.45 0.45 0.45 0.44 0.45 0.47 0.49 0.51 0.60 0.62 0.58 0.59 0.64 0.73 0.79 0.81 0.82 0.86 0.91 0.92 0.90
0.44 0.46 0.45 0.44 0.46 0.46 0.47 0.48 0.47 0.47 0.46 0.46 0.46 0.47 0.48 0.51 0.53 0.56 0.55 0.55 0.54 0.51 0.51 0.52 0.51 0.52 0.52 0.50 0.49 0.54 0.59 0.56 0.55 0.57 0.60 0.65 0.72 0.78 0.81 0.84 0.87 0.92 0.97